Regional Weather Roundup
Issued by NWS Newport/Morehead, NC

Current Version | Previous Version | Text Only | Print | Product List | Glossary Off
Versions: 1 2 3 4 5 6 7 8 9 10 11 12 13 14 15 16 17 18 19 20 21 22 23 24 25 26 27 28 29 30 31 32 33 34 35 36 37 38 39 40 41 42 43 44 45 46 47 48 49 50
000 ASUS42 KMHX 230413 RWRMHX WEATHER ROUNDUP FOR EASTERN NORTH CAROLINA NATIONAL WEATHER SERVICE NEWPORT/MOREHEAD CITY NC 1200 AM EDT SAT JUL 23 2016 NOTE: "FAIR" INDICATES FEW OR NO CLOUDS BELOW 12,000 FEET WITH NO SIGNIFICANT WEATHER AND/OR OBSTRUCTIONS TO VISIBILITY NCZ015>017-031-032-045>047-102-103-230500- NORTH COAST CITY SKY/WX TMP DP RH WIND PRES REMARKS EDENTON CLEAR 81 70 68 SW9 30.01S ELIZABETH CITY PTCLDY 80 70 71 SW10 30.00S KITTY HAWK CLEAR 80 70 70 SW7 30.00S MANTEO N/A 80 73 78 SW14 30.02R $$ NCZ045>047-081-094-103-104-230500- CENTRAL COAST CITY SKY/WX TMP DP RH WIND PRES REMARKS FRISCO CLEAR 82 72 71 SW9 30.03S $$ NCZ095-097-098-100-101-230500- SOUTHERN COAST CITY SKY/WX TMP DP RH WIND PRES REMARKS BEAUFORT CLEAR 81 72 74 SW10 30.03S CEDAR ISLAND NOT AVBL JACKSONVILLE CLEAR 76 70 82 S5 30.02S PINEY ISLAND NOT AVBL WILMINGTON CLEAR 78 70 76 S6 30.03F $$ NCZ011>013-027>030-043-044-078>080-089-090>093-098-230500- COASTAL PLAIN CITY SKY/WX TMP DP RH WIND PRES REMARKS AHOSKIE CLEAR 76 72 87 S3 30.00S CLINTON CLEAR 78 73 86 CALM 30.03R ELIZABETHTOWN CLEAR 80 72 78 CALM 30.03S GOLDSBORO CLEAR 78 76 92 S2 30.01R GREENVILLE CLEAR 79 72 78 SW6 30.03S HAVELOCK CLEAR 77 70 79 S6 30.04S KENANSVILLE CLEAR 76 69 79 CALM 30.03R KINSTON CLEAR 78 70 77 SW6 30.03R NEW BERN CLEAR 77 71 82 S5 30.04S RICHLANDS CLEAR 74 71 91 S5 30.03S ROCKY MOUNT CLEAR 76 73 91 S3 30.01R WASHINGTON CLEAR 78 70 77 S5 30.02R WHITEVILLE CLEAR 78 72 83 CALM 30.03S $$ AMZ130-135-150-152-154-156-158-170-250-252-270-ANZ085-086-088-633-658-670-230500- MARINE OBSERVATIONS STATION/POSITION TIME TEMP WIND PRES WAVE SWELL AIR SEA DIR/SP/G HT/PER HT/PER (UTC) (F) (DEG/KT/KT) (MB) (FT/S) (FT/S) CHESAPEAKE LIGHT NOT AVBL 64 E VA BEACH 0350 81 80 210/ 16/ 17 1015.1 3/ 4 2/ 8 DUCK 0300 82 69 N/A 2 E DUCK 0311 77 N/A 2/ 8 OREGON INLET 0300 84 84 N/A 13E OREGON INLT 0300 81 N/A 2/ 8 2/ 8 HATTERAS CG 0300 82 84 N/A DIAMOND BUOY 0350 83 87 220/ 12/ 14 1016.8 2/ 8 2/ 8 CAPE LOOKOUT 0400 82 220/ 7/ 8 1016.6 BEAUFORT LAB 0300 83 83 N/A 30 SE NEW RVR IN 0308 83 85 200/ 10/ 14 1016.8 30 SE NEW RVR IN 0325 85 N/A 2/ 8 27 SE WRIGHTSVLE 0308 83 85 210/ 10/ 14 1017.2 5 SE WRIGHTSVLE 0308 83 84 210/ 12/ 17 1017.9 225 S CAPE HAT 0350 83 86 140/ 4/ 6 1017.3 3/ 9 3/ 9 41 SE CHARLESTON 0350 84 86 180/ 10/ 12 1017.0 3/ 8 3/ 8 $$

USA.gov is the U.S. government's official web portal to all federal, state and local government web resources and services.